Weather History for KSBN - August, 2013

Change the Weather History Date:

Friday, August 16, 2013

  Actual Average Record
Temperature  
Mean Temperature 65 °F 72 °F  
Max Temperature 79 °F 81 °F 98 °F (1988)
Min Temperature 50 °F 62 °F 44 °F (1929)
Degree Days  
Heating Degree Days 0 0  
Month to date heating degree days 15 0  
Since 1 June heating degree days 66 49  
Since 1 July heating degree days 29 5  
Cooling Degree Days 0 7  
Month to date cooling degree days 57 114  
Year to date cooling degree days 547 588  
Since 1 June cooling degree days 451 532  
Growing Degree Days 14 (Base 50)    
Moisture  
Dew Point 50 °F    
Average Humidity 61    
Maximum Humidity 93    
Minimum Humidity 25    
Precipitation  
Precipitation 0.00 in 0.13 in 1.80 in (1978)
Month to date precipitation 2.64 1.99  
Year to date precipitation 26.53 23.50  
Snow  
Snow 0.00 in - - ()
Month to date snowfall 0.0  
Since 1 June snowfall 0.0  
Snow Depth 0.00 in    
Sea Level Pressure  
Sea Level Pressure 30.17 in    
Wind  
Wind Speed 3 mph (NE)    
Max Wind Speed 10 mph    
Max Gust Speed 16 mph    
Visibility 10 miles    
Events      
T = Trace of Precipitation, MM = Missing Value Source: NWS Daily Summary

Daily Weather History Graph

Daily Weather History Graph

Search for Another Location

Airport or City:

Trip Planner

Search our weather history database for the weather conditions in past years. The results will help you decide how hot, cold, wet, or windy it might be!

Date:

Astronomy

Aug. 16, 2013 Rise Set
Actual Time 6:54 AM EDT 8:43 PM EDT
Civil Twilight 6:25 AM EDT 9:12 PM EDT
Nautical Twilight 5:48 AM EDT 9:49 PM EDT
Astronomical Twilight 5:09 AM EDT 10:27 PM EDT
Moon 5:03 PM EDT (8/16) 1:55 AM EDT (8/16)
Length of Visible Light 14h 47m
Length of Day
13h 48m
Waxing Gibbous, 74% of the Moon is Illuminated
Aug 16
Waxing Gibbous
Aug 20
Full
Aug 28
Last Quarter
Sep 5
New
Sep 12
First Quarter

Hourly Weather History & Observations

Time (EDT) Temp. Dew Point Humidity Pressure Visibility Wind Dir Wind Speed Gust Speed Precip Events Conditions
1:54 AM 54.0 °F 50.0 °F 86% 30.15 in 10.0 mi Calm Calm - N/A   Clear
2:54 AM 54.0 °F 50.0 °F 86% 30.16 in 10.0 mi Calm Calm - N/A   Clear
3:54 AM 52.0 °F 50.0 °F 93% 30.15 in 10.0 mi Calm Calm - N/A   Clear
4:54 AM 53.1 °F 50.0 °F 89% 30.15 in 10.0 mi Calm Calm - N/A   Clear
5:54 AM 51.1 °F 48.0 °F 89% 30.16 in 10.0 mi Calm Calm - N/A   Clear
6:54 AM 51.1 °F 46.9 °F 86% 30.17 in 10.0 mi Calm Calm - N/A   Clear
7:54 AM 54.0 °F 50.0 °F 86% 30.18 in 10.0 mi Calm Calm - N/A   Clear
8:54 AM 60.1 °F 55.0 °F 83% 30.19 in 10.0 mi Calm Calm - N/A   Clear
9:54 AM 66.0 °F 53.1 °F 63% 30.19 in 10.0 mi SSE 5.8 mph - N/A   Clear
10:54 AM 71.1 °F 51.1 °F 49% 30.19 in 10.0 mi ESE 5.8 mph - N/A   Clear
11:54 AM 73.0 °F 46.9 °F 39% 30.19 in 10.0 mi ENE 3.5 mph - N/A   Clear
12:54 PM 75.0 °F 48.0 °F 38% 30.19 in 10.0 mi NE 5.8 mph - N/A   Clear
1:54 PM 77.0 °F 48.0 °F 36% 30.18 in 10.0 mi Calm Calm - N/A   Clear
2:54 PM 77.0 °F 48.9 °F 37% 30.18 in 10.0 mi ENE 3.5 mph - N/A   Mostly Cloudy
3:54 PM 77.0 °F 48.0 °F 36% 30.17 in 10.0 mi East 5.8 mph - N/A   Scattered Clouds
4:54 PM 78.1 °F 48.0 °F 35% 30.16 in 10.0 mi NE 5.8 mph - N/A   Clear
5:54 PM 79.0 °F 48.9 °F 35% 30.16 in 10.0 mi North 3.5 mph - N/A   Clear
6:54 PM 77.0 °F 46.9 °F 34% 30.17 in 10.0 mi ENE 5.8 mph - N/A   Clear
7:54 PM 73.9 °F 51.1 °F 45% 30.17 in 10.0 mi NNE 6.9 mph - N/A   Clear
8:54 PM 72.0 °F 50.0 °F 46% 30.17 in 10.0 mi Calm Calm - N/A   Clear
9:54 PM 61.0 °F 53.1 °F 75% 30.19 in 10.0 mi WNW 4.6 mph - N/A   Clear
10:54 PM 60.1 °F 54.0 °F 80% 30.20 in 10.0 mi North 5.8 mph - N/A   Clear
11:54 PM 61.0 °F 55.0 °F 81% 30.20 in 10.0 mi Calm Calm - N/A   Clear